Skip Page Navigation
NASA JPL Caltech
NASA Logo - Jet Propulsion Laboratory + View the NASA Portal
+ Center for Near-Earth Object Studies
JPL Home Earth Solar System Stars & Galaxies Technology
JPL Solar System Dynamics
BODIES ORBITS EPHEMERIDES TOOLS PHYSICAL DATA DISCOVERY FAQ SITE MAP
JPL Small-Body Database Browser
Search: [ help ]  
190474 (2000 DL52)
Classification: Main-belt Asteroid          SPK-ID: 2190474
Ephemeris | Orbit Diagram | Orbital Elements | Mission Design | Physical Parameters | Discovery Circumstances | Close-Approach Data ]

[ show orbit diagram ]
Orbital Elements at Epoch 2459200.5 (2020-Dec-17.0) TDB
Reference: JPL 17 (heliocentric ecliptic J2000)
 Element Value Uncertainty (1-sigma)   Units 
e .06387633341874438 5.1196e-08  
a 3.151601363236251 2.6394e-08 au
q 2.950288623755203 1.7081e-07 au
i 9.302816833211327 7.1552e-06 deg
node 340.9320821458035 2.9411e-05 deg
peri 130.5404524318239 6.1957e-05 deg
M 299.2009843116529 5.4478e-05 deg
tp 2459545.635310507762
(2021-Nov-27.13531051)
0.00031001 TDB
period 2043.597423018944
5.60
2.5672e-05
7.029e-08
d
yr
n .1761599402822612 2.2129e-09 deg/d
Q 3.352914102717299 2.808e-08 au
  Orbit Determination Parameters
   # obs. used (total)      511  
   data-arc span      10334 days (28.29 yr)  
   first obs. used      1992-09-24  
   last obs. used      2021-01-09  
   planetary ephem.      DE441  
   SB-pert. ephem.      SB441-N16  
   condition code      0  
   norm. resid. RMS      .56997  
   source      ORB  
   producer      Otto Matic  
   solution date      2021-Apr-13 22:07:49  

Additional Information
 Earth MOID = 1.97644 au 
 Jupiter MOID = 1.71026 au 
 T_jup = 3.184 
[ show covariance matrix ]

Ephemeris | Orbit Diagram | Orbital Elements | Mission Design | Physical Parameters | Discovery Circumstances | Close-Approach Data ]

Physical Parameter Table
Parameter Symbol Value Units Sigma Reference Notes
absolute magnitude H 14.88   n/a E2021B55  
diameter diameter 5.415 km 0.295 urn:nasa:pds:neowise_diameters_albedos::2.0[mainbelt] (http://adsabs.harvard.edu/abs/2011ApJ...741...68M)  
geometric albedo albedo 0.095   0.033 urn:nasa:pds:neowise_diameters_albedos::2.0[mainbelt] (http://adsabs.harvard.edu/abs/2011ApJ...741...68M)  

190474 (2000 DL52)          Discovered 2000-Feb-29 by LINEAR at Socorro
Reference: 20080917/Numbers.arcLast Updated: 2008-09-19

[ hide close-approach data ]
Close-Approach Data   ...sorted by Date/Time (TDB)
Date/Time (TDB) Time Uncertainty
(days_HH:MM)
Body Nominal Distance (au) Minimum Distance (au) Maximum Distance (au) V-relative (km/s) V-infinity (km/s) JD (TDB) Time Uncertainty (minutes) Semi-major axis (km) Semi-minor axis (km) range-LOV angle (deg) N-sigma BP Orbit Ref. Reference Modified
1975-Jul-13 14:14 00:02 Jupiter 1.88668807712602 1.88668709781372 1.88668905643863 3.89116573170972 3.77402665851096 2442607.093157651 1.72707137072785 105.519791298573 38.7283049778698 75.6109415792632 2190268.58539936 T 17 CATAB v2.0f-lin.ifort 2021-Apr-13 22:07:50 2021-Apr-13 22:07
1986-Feb-09 21:56 00:01 Jupiter 1.76550517976275 1.76550456799834 1.76550579152746 3.74228601034775 3.61181122701635 2446471.413770152 1.24373633363623 115.276305899506 23.8294841199035 83.7767604657549 2176664.79124741 T 17 CATAB v2.0f-lin.ifort 2021-Apr-13 22:07:50 2021-Apr-13 22:07
1996-Sep-09 11:25 < 00:01 Jupiter 1.93051350455417 1.93051284840988 1.93051416069878 3.31452228102647 3.17939426477407 2450335.975679383 0.867574707161418 75.0773127700858 19.2846078037998 72.339453873976 2615705.96460606 T 17 CATAB v2.0f-lin.ifort 2021-Apr-13 22:07:50 2021-Apr-13 22:07
2081-Aug-11 00:46 00:02 Jupiter 1.77632237044046 1.77632160838769 1.77632313249524 3.7884082990731 3.66037653371866 2481352.531753156 2.46927194439688 196.235526594771 28.2230339625986 83.9718169628718 2054324.59990216 T 17 CATAB v2.0f-lin.ifort 2021-Apr-13 22:07:50 2021-Apr-13 22:07
2092-Mar-16 19:21 00:03 Jupiter 1.81510968151597 1.81510875283218 1.81511061020183 3.55572435457081 3.4219693082601 2485223.306278191 2.91893505730518 132.842036329506 24.4887375398076 71.7277487886269 2340241.16638527 T 17 CATAB v2.0f-lin.ifort 2021-Apr-13 22:07:50 2021-Apr-13 22:07
2177-Feb-18 09:32 00:06 Jupiter 1.86095372475926 1.86095163207297 1.86095581746607 3.72371185940433 3.59940549042124 2516241.897235862 6.38327742794867 355.929237212603 36.8301824552236 74.0078195786174 2060659.45788771 T 17 CATAB v2.0f-lin.ifort 2021-Apr-13 22:07:50 2021-Apr-13 22:07
2187-Sep-18 21:00 00:07 Jupiter 1.75092594692658 1.75092513769786 1.7509267561556 3.69887134323052 3.56568863060729 2520106.374998076 6.53928504816464 126.027610231926 36.7533090628897 81.9846912130975 2213189.82440048 T 17 CATAB v2.0f-lin.ifort 2021-Apr-13 22:07:50 2021-Apr-13 22:07
2198-Apr-20 18:50 00:07 Jupiter 1.93875473483315 1.93875181092619 1.938757658753 3.40629819847913 3.27552857770378 2523973.284730797 7.25323125073004 297.257489740229 24.6154021500605 59.16144401622 2859910.24192078 T 17 CATAB v2.0f-lin.ifort 2021-Apr-13 22:07:50 2021-Apr-13 22:07
Ephemeris | Orbit Diagram | Orbital Elements | Mission Design | Physical Parameters | Discovery Circumstances | Close-Approach Data ]
ABOUT SSD CREDITS/AWARDS PRIVACY/COPYRIGHT GLOSSARY LINKS
FirstGov 2021-May-18 09:12 UT
(server date/time)  
NASA Home Page
Site Manager:   Ryan S. Park
Webmaster  Alan B. Chamberlin